Precipitable_Water
1.07 1.13 1.17 1.23 1.25 1.29 1.29 1.31 1.32 1.40 1.48 1.52 1.54 1.56 1.50 1.62 1.55 1.52 1.56 1.58 1.60 1.70 1.70 1.69 1.67 1.55 1.60 1.75 1.67 1.49 1.40 1.39 1.41 1.20 1.16 1.19 1.29 1.45 1.66 1.82 1.95 1.98 2.04
0.97 1.05 1.10 1.17 1.21 1.24 1.28 1.32 1.33 1.38 1.44 1.46 1.56 1.68 1.59 1.61 1.62 1.56 1.56 1.60 1.64 1.67 1.65 1.63 1.61 1.52 1.56 1.59 1.56 1.58 1.51 1.45 1.43 1.20 1.17 1.03 1.17 1.32 1.55 1.73 1.86 1.91 1.97
0.95 0.90 1.04 1.11 1.16 1.17 1.23 1.28 1.33 1.34 1.42 1.49 1.57 1.64 1.69 1.59 1.52 1.45 1.52 1.56 1.59 1.60 1.64 1.66 1.64 1.57 1.62 1.58 1.65 1.68 1.60 1.47 1.54 1.50 1.38 1.23 1.24 1.41 1.58 1.74 1.88 1.95 1.95
0.95 0.93 0.91 0.98 1.11 1.15 1.23 1.29 1.33 1.33 1.38 1.50 1.51 1.49 1.47 1.40 1.47 1.45 1.50 1.55 1.61 1.61 1.56 1.60 1.59 1.60 1.60 1.57 1.63 1.69 1.65 1.60 1.47 1.57 1.65 1.68 1.69 1.47 1.42 1.73 1.85 1.88 1.85
1.08 1.00 0.84 0.85 1.00 1.13 1.17 1.21 1.26 1.29 1.34 1.37 1.44 1.43 1.46 1.47 1.50 1.52 1.44 1.48 1.51 1.60 1.65 1.64 1.60 1.57 1.59 1.56 1.58 1.73 1.73 1.76 1.68 1.65 1.64 1.62 1.59 1.71 1.64 1.49 1.67 1.87 1.91
1.14 1.08 1.04 0.99 0.94 1.02 1.11 1.11 1.15 1.20 1.29 1.36 1.38 1.37 1.36 1.40 1.39 1.38 1.39 1.41 1.42 1.50 1.58 1.61 1.63 1.63 1.60 1.60 1.59 1.66 1.64 1.68 1.68 1.68 1.69 1.64 1.55 1.61 1.67 1.62 1.69 1.67 1.70
1.17 1.17 1.18 1.21 1.17 1.01 1.00 0.99 1.07 1.10 1.21 1.29 1.35 1.36 1.36 1.38 1.34 1.37 1.34 1.35 1.40 1.43 1.51 1.61 1.62 1.57 1.53 1.54 1.56 1.60 1.60 1.62 1.62 1.58 1.72 1.82 1.77 1.85 1.93 1.82 1.74 1.63 1.72
1.11 1.19 1.22 1.23 1.33 1.36 1.29 1.22 1.13 1.01 1.15 1.22 1.27 1.32 1.37 1.39 1.37 1.36 1.34 1.32 1.40 1.44 1.49 1.46 1.45 1.44 1.45 1.38 1.44 1.52 1.60 1.69 1.68 1.82 1.96 1.97 2.08 2.08 2.09 1.90 1.82 1.69 1.70
0.99 1.10 1.19 1.25 1.32 1.35 1.37 1.35 1.30 1.19 1.08 1.14 1.21 1.22 1.25 1.28 1.25 1.26 1.30 1.30 1.30 1.30 1.35 1.34 1.34 1.38 1.38 1.46 1.58 1.58 1.52 1.52 1.71 1.99 2.05 2.04 2.16 2.20 2.21 2.14 2.03 1.85 1.59
0.93 0.97 1.09 1.20 1.27 1.34 1.42 1.46 1.53 1.55 1.39 1.25 1.28 1.25 1.21 1.17 1.19 1.25 1.24 1.32 1.42 1.50 1.61 1.57 1.51 1.51 1.57 1.63 1.66 1.53 1.59 1.79 1.90 2.00 2.06 2.08 2.14 2.17 2.26 2.14 2.07 2.02 1.87
1.02 0.92 0.98 1.10 1.20 1.28 1.37 1.45 1.52 1.56 1.62 1.42 1.29 1.34 1.39 1.48 1.54 1.61 1.77 1.77 1.75 1.80 1.86 1.81 1.73 1.65 1.62 1.62 1.63 1.78 1.84 1.82 1.80 1.87 1.93 1.96 2.08 2.08 2.20 2.12 2.07 1.99 1.95
0.99 1.00 0.97 1.04 1.09 1.17 1.25 1.28 1.38 1.45 1.53 1.48 1.37 1.49 1.62 1.65 1.69 1.78 1.85 1.90 1.82 1.85 1.88 1.86 1.79 1.79 1.81 1.86 1.84 1.76 1.75 1.65 1.64 1.68 1.77 1.80 2.05 2.01 2.10 2.09 2.00 1.99 1.96
0.83 1.04 0.99 0.92 0.99 1.10 1.21 1.24 1.30 1.37 1.42 1.40 1.43 1.50 1.51 1.56 1.61 1.70 1.78 1.78 1.73 1.72 1.85 1.86 1.83 1.82 1.84 1.80 1.77 1.66 1.57 1.64 1.66 1.69 1.75 1.92 1.98 1.88 1.99 2.02 1.97 1.98 1.87
0.76 1.03 1.02 0.99 0.97 1.02 1.11 1.18 1.24 1.34 1.34 1.34 1.37 1.43 1.51 1.55 1.58 1.63 1.68 1.75 1.86 1.77 1.97 2.01 1.94 1.81 1.75 1.64 1.54 1.56 1.59 1.67 1.76 1.79 1.91 1.94 1.86 1.76 1.82 1.90 1.91 1.95 1.76
0.67 0.98 1.02 0.98 1.01 0.98 1.07 1.10 1.15 1.21 1.24 1.24 1.24 1.33 1.51 1.59 1.62 1.63 1.67 1.77 1.86 1.93 2.09 2.00 1.87 1.78 1.59 1.48 1.47 1.55 1.68 1.71 1.75 1.82 1.84 1.85 1.83 1.89 1.90 1.88 1.86 1.85 1.73
0.64 1.00 1.11 1.10 1.04 1.02 0.99 0.98 1.06 1.13 1.17 1.15 1.18 1.29 1.37 1.45 1.54 1.58 1.61 1.71 1.78 1.91 2.00 1.91 1.79 1.58 1.39 1.46 1.54 1.61 1.65 1.73 1.73 1.66 1.70 1.72 1.78 1.83 1.87 1.90 1.92 1.86 1.69
0.64 0.93 1.10 1.15 1.19 1.11 1.09 0.95 0.97 1.09 1.10 1.11 1.19 1.27 1.31 1.33 1.42 1.52 1.55 1.57 1.62 1.82 1.79 1.76 1.63 1.25 1.30 1.31 1.49 1.59 1.69 1.65 1.58 1.53 1.54 1.59 1.68 1.77 1.82 1.86 1.86 1.92 1.74
0.80 0.92 1.13 1.22 1.30 1.38 1.15 1.17 1.08 1.05 1.06 1.09 1.15 1.24 1.30 1.34 1.42 1.47 1.51 1.56 1.62 1.60 1.56 1.53 1.38 1.12 1.09 1.26 1.43 1.60 1.68 1.58 1.54 1.51 1.55 1.56 1.61 1.71 1.74 1.75 1.75 1.73 1.69
0.89 1.03 1.26 1.43 1.47 1.47 1.37 1.29 1.23 1.13 1.06 1.06 1.14 1.27 1.37 1.40 1.46 1.48 1.50 1.56 1.58 1.60 1.57 1.49 1.16 0.99 1.02 1.14 1.25 1.38 1.47 1.47 1.50 1.52 1.50 1.51 1.53 1.62 1.67 1.68 1.65 1.65 1.57
0.92 0.93 1.27 1.45 1.42 1.48 1.51 1.45 1.32 1.33 1.18 1.21 1.25 1.34 1.35 1.35 1.39 1.46 1.50 1.58 1.62 1.57 1.50 1.31 1.09 1.04 0.95 1.00 1.11 1.23 1.26 1.25 1.32 1.42 1.44 1.42 1.47 1.54 1.56 1.56 1.53 1.46 1.46
0.99 1.02 1.17 1.39 1.54 1.51 1.54 1.50 1.49 1.41 1.54 1.45 1.46 1.32 1.31 1.34 1.43 1.51 1.54 1.55 1.53 1.47 1.31 1.15 1.03 0.97 0.90 0.91 0.96 1.06 1.09 1.12 1.20 1.26 1.32 1.38 1.42 1.45 1.45 1.43 1.49 1.52 1.48
1.02 1.10 1.06 1.17 1.54 1.58 1.57 1.54 1.56 1.69 1.79 1.55 1.44 1.43 1.37 1.38 1.41 1.45 1.52 1.50 1.42 1.27 1.12 0.97 0.87 0.89 0.93 0.91 0.93 0.94 0.91 0.87 1.09 1.15 1.27 1.31 1.35 1.30 1.36 1.48 1.51 1.35 1.40
1.00 1.16 1.18 1.12 1.25 1.57 1.61 1.59 1.70 1.85 1.85 1.71 1.47 1.50 1.55 1.44 1.40 1.37 1.42 1.36 1.27 1.12 0.92 0.84 0.78 0.79 0.84 0.86 0.85 0.91 0.94 0.89 0.98 1.08 1.22 1.28 1.21 1.29 1.46 1.47 1.39 1.31 1.34
0.97 1.08 1.21 1.20 1.21 1.44 1.68 1.72 1.83 1.89 1.86 1.69 1.61 1.52 1.55 1.46 1.34 1.25 1.22 1.11 1.02 0.90 0.80 0.74 0.72 0.71 0.73 0.75 0.83 0.87 0.93 0.97 0.97 0.98 1.08 1.21 1.19 1.37 1.47 1.45 1.43 1.30 1.24
1.02 1.07 1.13 1.22 1.26 1.41 1.63 1.79 1.86 1.92 1.74 1.55 1.69 1.51 1.51 1.41 1.23 1.11 1.07 1.02 0.94 0.87 0.76 0.75 0.75 0.71 0.67 0.73 0.78 0.78 0.79 0.85 0.90 0.93 0.99 1.03 1.13 1.21 1.33 1.36 1.33 1.29 1.24
0.85 1.02 1.12 1.21 1.27 1.36 1.48 1.70 1.90 1.87 1.71 1.64 1.70 1.58 1.40 1.34 1.21 1.09 1.00 1.02 0.95 0.90 0.89 0.87 0.83 0.77 0.76 0.76 0.76 0.78 0.76 0.78 0.85 0.86 0.86 0.89 0.99 1.13 1.26 1.32 1.37 1.38 1.38
Wind_Speed
14 14 14 14 14 14 14 13 12 11 9 8 6 5 4 3 2 2 2 2 2 3 4 4 5 7 8 9 10 12 13 15 16 18 17 17 16 15 15 15 15 16 19
14 14 15 15 15 15 15 14 14 12 11 9 8 6 5 4 3 2 2 1 2 3 4 5 6 7 9 10 11 13 14 16 17 17 17 17 16 15 15 16 17 22 17
13 14 15 15 16 16 16 16 15 14 12 11 10 8 7 5 4 4 4 3 4 5 6 7 8 9 10 12 13 15 16 17 18 18 19 18 17 19 17 18 21 15 14
14 14 15 15 16 16 17 17 16 15 14 13 12 10 9 7 5 5 6 5 6 8 8 9 10 11 13 15 15 15 16 17 20 20 19 19 20 21 21 19 18 18 16
15 14 15 15 16 16 16 17 16 16 15 15 14 12 11 9 8 7 7 8 8 9 9 10 12 13 14 16 17 17 18 19 21 21 19 21 22 22 21 21 18 19 16
16 15 15 15 15 16 16 16 17 16 16 15 15 14 12 11 10 10 9 10 10 11 11 12 13 14 15 17 18 18 19 20 22 22 21 24 26 22 22 18 18 15 14
17 16 15 15 15 14 15 17 17 17 17 17 16 15 15 14 13 13 12 12 13 13 13 14 15 16 18 19 20 20 21 22 22 22 23 24 26 25 22 17 15 13 14
17 18 18 17 17 16 15 16 15 18 19 18 18 17 17 16 15 15 15 14 14 14 15 16 17 19 20 20 19 19 20 21 21 22 24 24 25 25 24 15 18 14 13
15 17 18 20 19 19 19 17 16 15 17 19 18 18 18 17 16 16 14 14 15 15 15 16 17 17 17 17 18 19 20 21 22 22 23 23 24 26 22 17 15 14 10
12 14 15 17 19 20 19 19 18 17 15 16 16 16 16 15 14 14 13 13 12 12 13 14 15 15 16 17 18 19 19 21 22 22 23 24 24 23 20 15 16 16 14
13 14 14 15 16 18 19 19 19 18 17 16 15 15 14 13 13 13 13 12 12 13 14 14 14 16 17 18 19 20 21 22 23 23 23 24 23 21 17 14 17 15 12
16 16 15 14 15 16 17 19 18 17 18 17 17 17 16 16 15 15 14 14 13 13 13 14 14 16 17 19 19 20 21 23 24 25 24 23 20 19 17 14 15 14 13
17 18 17 15 15 15 16 17 19 19 17 16 16 16 15 15 14 14 14 13 13 13 12 13 14 16 18 19 20 21 23 23 23 23 21 20 19 18 16 14 14 13 14
18 21 20 18 16 15 15 16 18 21 20 18 16 16 16 15 14 14 14 14 13 13 13 13 15 17 19 20 21 22 21 21 20 19 19 19 18 16 15 14 14 11 13
18 22 23 21 19 17 16 16 17 18 21 20 19 17 16 16 17 17 16 15 15 14 12 14 16 18 18 18 20 19 19 19 18 18 18 18 17 15 14 13 13 11 11
21 22 24 23 23 21 17 16 16 16 17 19 21 20 20 18 17 16 17 15 14 13 14 15 16 17 17 18 18 17 17 17 18 18 18 17 16 15 15 14 11 9 8
22 23 25 24 23 23 21 18 17 17 17 17 18 18 19 19 18 17 17 16 16 15 14 15 16 15 15 16 17 16 15 16 17 17 17 17 17 16 14 12 9 6 7
21 22 26 26 25 24 25 22 19 19 18 17 17 17 17 18 18 18 17 17 16 15 15 15 14 13 14 15 15 15 15 15 15 17 18 17 16 14 12 10 8 6 5
22 23 26 28 27 26 26 25 23 21 19 18 17 17 17 17 17 17 17 17 16 15 15 14 13 13 14 15 15 15 15 15 16 17 17 16 15 13 11 10 8 6 5
23 24 26 28 29 29 28 28 26 25 22 20 19 17 16 16 17 16 16 16 16 15 15 14 13 13 14 15 15 16 16 17 17 17 17 16 14 12 12 9 7 6 4
25 24 25 29 31 32 31 30 29 28 26 24 21 20 18 17 16 16 16 16 16 15 15 14 14 13 14 15 16 17 18 18 18 18 17 15 13 12 11 9 8 6 4
27 25 25 27 31 33 34 33 31 29 27 25 24 22 20 19 18 17 17 17 17 16 16 15 15 15 16 17 17 18 19 19 18 18 16 14 11 10 9 7 6 4 4
32 30 30 29 29 33 36 35 33 31 29 26 25 24 22 21 20 18 18 17 18 17 17 17 17 17 18 18 19 19 19 19 17 17 16 13 10 9 9 7 5 5 4
34 33 32 32 31 31 34 36 35 34 31 27 26 25 24 22 21 20 19 19 18 18 18 18 18 18 18 18 19 19 19 17 16 15 14 12 11 10 9 8 7 7 7
35 33 34 35 33 33 35 37 38 36 34 31 29 27 26 23 22 21 21 19 19 19 18 18 18 18 18 18 18 17 16 15 14 14 13 12 13 13 12 11 10 10 9
36 37 37 35 35 34 34 37 39 37 35 31 29 27 25 24 23 22 21 20 18 17 16 16 16 16 16 17 16 15 14 14 14 13 13 13 14 15 16 16 15 13 12
Wind_Direction
206 205 206 207 207 207 207 207 207 206 205 208 209 210 214 219 228 249 273 262 247 261 285 307 308 315 314 319 321 325 327 327 325 324 322 320 325 327 317 313 310 301 293
216 214 213 212 213 213 213 213 213 212 213 214 213 214 221 229 239 255 261 239 264 286 298 309 315 317 314 316 320 323 325 326 328 326 323 322 319 322 322 318 313 305 296
219 219 218 217 217 217 216 216 217 218 219 217 216 221 226 235 249 247 253 263 279 288 296 302 307 312 313 316 317 318 321 325 326 327 325 323 319 318 316 319 324 322 304
223 223 222 220 219 219 217 218 218 219 221 219 220 224 227 236 245 255 255 270 284 292 291 297 303 306 310 313 314 315 320 324 325 325 326 326 323 319 310 312 316 316 313
225 224 222 220 219 218 217 218 219 220 222 220 224 228 232 238 249 257 262 272 287 296 293 294 301 307 309 313 312 312 315 318 322 323 325 329 324 320 322 305 306 305 306
226 226 223 220 220 219 219 219 220 222 222 222 226 230 236 241 249 258 267 275 284 292 294 295 300 305 309 312 313 311 311 315 318 322 325 324 325 323 321 313 309 307 312
222 222 219 218 218 216 219 222 223 224 226 228 231 235 241 246 252 259 269 276 282 286 292 295 298 302 306 309 310 311 312 314 317 319 321 327 328 327 315 302 309 299 314
224 225 224 224 223 223 222 223 226 229 230 232 235 239 244 249 254 261 268 274 279 285 290 294 298 301 305 308 310 312 315 317 318 318 323 324 329 331 322 313 306 298 295
226 227 229 229 228 228 228 226 228 231 232 234 238 241 245 248 253 259 266 273 279 283 290 297 301 303 307 311 314 315 317 318 318 320 324 325 329 331 337 319 312 310 319
233 231 230 230 229 229 228 229 230 232 235 235 237 240 242 244 248 255 263 271 278 284 292 299 304 307 310 312 313 314 317 319 321 321 322 324 327 329 333 329 326 326 312
238 233 233 232 230 230 229 231 231 234 234 236 233 232 235 239 247 253 261 268 278 285 292 299 304 307 308 312 314 314 314 316 319 320 320 323 326 330 330 328 335 339 335
243 233 234 232 230 229 230 229 231 232 231 234 233 235 241 246 250 255 259 267 275 284 293 300 306 310 312 313 315 318 319 318 318 316 317 320 324 325 328 323 330 337 337
245 234 231 232 232 233 233 231 230 230 231 230 232 235 240 243 248 253 259 263 270 281 290 298 308 314 316 317 318 318 319 321 321 321 321 323 322 322 325 324 328 332 338
250 234 232 231 233 235 237 236 234 231 229 230 232 234 237 244 251 255 258 262 268 275 286 296 306 314 317 318 320 321 322 325 329 329 328 327 325 323 323 324 327 328 337
254 238 232 231 231 236 240 239 237 234 230 231 233 235 240 250 255 255 257 262 266 271 283 295 306 314 318 322 324 325 327 329 332 334 335 334 332 328 328 326 325 327 337
257 243 235 234 234 233 238 238 237 233 231 233 236 241 247 252 254 254 253 256 259 266 281 291 305 313 317 323 327 329 331 335 335 336 337 339 338 332 328 325 320 321 339
258 248 237 235 234 232 232 235 234 232 234 237 240 242 246 248 250 253 252 252 258 267 276 288 301 309 316 322 326 329 332 335 338 341 339 338 337 334 332 331 330 319 338
262 253 241 236 236 235 231 232 233 234 236 239 242 244 247 248 249 250 249 252 257 265 274 285 293 303 313 320 325 328 331 334 338 339 339 340 340 340 340 339 338 332 332
262 253 244 237 235 235 233 232 233 235 237 239 242 245 248 249 247 246 248 251 255 261 270 277 284 296 308 314 318 322 326 328 330 334 338 338 339 340 341 338 335 332 331
266 256 246 238 237 234 233 232 234 235 238 239 241 244 246 246 245 246 247 250 253 259 267 272 279 291 302 309 313 315 317 321 323 325 329 333 333 332 336 334 332 326 318
262 258 248 242 238 236 233 234 235 237 238 239 241 243 245 244 243 245 248 249 252 257 261 266 275 286 297 305 309 312 312 312 313 315 318 322 323 326 329 330 324 315 305
261 257 252 248 242 237 235 234 235 235 235 237 240 242 242 242 244 245 249 249 251 254 257 263 272 282 290 300 305 308 311 310 306 307 309 310 309 315 321 326 332 325 310
258 256 253 250 246 240 236 234 234 233 233 235 238 239 241 241 242 244 247 250 251 252 256 262 271 279 288 295 301 303 306 308 306 303 301 297 296 300 305 307 310 306 301
257 255 251 250 248 242 236 234 232 231 230 233 236 238 239 240 242 245 248 252 252 254 257 263 270 278 285 293 298 301 301 304 303 302 299 287 283 287 290 286 281 285 298
256 254 250 248 248 244 239 233 232 232 235 235 231 234 237 241 243 246 249 252 254 256 258 263 270 276 281 289 295 299 301 302 301 299 294 286 278 274 274 273 270 274 280
256 253 250 247 244 242 240 235 231 230 231 231 230 230 236 237 242 245 246 249 250 253 258 263 269 273 280 285 289 293 299 300 299 298 295 288 282 274 268 264 263 267 272